Location: Linz
(48.3300°N, 14.3000°E)
Time: 01:05:56
(UTC+01:00)

Envisat - Pass Details

Date: 13 November 2017
Orbit: 764 x 766 km, 98.2° (Epoch: 24 November)

Event Time Altitude Azimuth Distance (km) Brightness Sun altitude
Exits shadow 20:11:43 16° 334° (NNW) 1,921 5.4 -37.3°
Drops below altitude 10° 20:12:46 10° 337° (NNW) 2,313 5.8 -37.4°
Sets 20:15:08 0° 343° (NNW) 3,244 6.6 -37.8°
